YAOGAN 29 DEB, 42673

Orbit data source: Space-Track

YAOGAN 29 DEB, 42673 is space debris in SSO originally from a launch on Thu, 26 Nov 2015 UTC launched from the Taiyaun Space Center, China (TSC). Debris objects in space refer to the collection of defunct objects orbiting the Earth. Examples of debris include non-operational satellites, rocket bodies, and fragments generated from explosions, collisions, or faulty payload assembly.

Loading next visibility...
Identifier
42673, 2015-069F
Orbit
SSO
Country
Flag of CNCN / PRC
Related business
Manufacturer
Unknown
Mission
Spacecraft
Bus & Motor
Unknown
Mass
Unknown
Launch date (UTC)
2015-11-26 (10 years ago)
Launch vehicle
Unknown
Launch site
Taiyaun Space Center, China (TSC)
Object type
Payload
Rocket body
Debris
Shape & HBR
Unknown
Radar Cross Section
Small (<0.1 m²)

Expand to show TLE details & history
Last TLE update: 12 hours ago

TLE from 12 hours ago
0 YAOGAN 29 DEB
1 42673U 15069F   25260.89983533  .00001169  00000-0  12608-3 0  9993
2 42673  97.9119 291.7608 0003496 163.9574 196.1755 14.90327384531419
Epoch: 2025-09-17T21:35Z
TLE epoch observation values (Epoch: 2025-09-17T21:35:45.772Z)
Latitude
-0.00001°
Longitude
-29.24907°
Altitude
602.292 km
Speed
7.557 km/s
True Right ascension
19h 27m 02s
True Declination
0° 00' 00"
Sunlit
Object was in full shadow at epoch
Visualization orbit readout
Latitude
Unknown
Longitude
Unknown
Altitude
Unknown
Speed
Unknown
Apparent Right ascension
Unknown
Apparent Declination
Unknown
Sunlit
N/A
Visualization observer readout
Local Sidereal Time
02:26:54
Azimuth
Unknown
Elevation
Unknown
Doppler factor
Unknown
Orbital elements
Apogee altitude
596.379 km
Perigee altitude
591.504 km
Semi-major axis
6,972.079 km
Eccentricity
0.00035
Inclination
97.9119°
RAAN
291.7608°
Arg. of periapsis
163.9574°
True anomaly
196.16434°
Mean anomaly
196.1755°
Eccentric anomaly
196.16992°
Mean motion
3.7282 °/min
Orbital period
96.56 mins
BSTAR
0.00012608
Loading maneuver chart data...
Computing Atmospheric mass density...
Loading historical data...
Loading historical data...
Loading historical data...
Loading historical data...
Loading historical data...
Loading historical data...
Loading historical data...
Other satellites on launch #69 in the year 2015 (2015-11-26 UTC)

Documentation

Showing up to 5 results
|